Location: Krakow
(50.0830°N, 19.9170°E)
Time: 06:19:42
(UTC+01:00)

SR - Pass Details

Date: 12 February 2023
Orbit: 582 x 867 km, 66.7° (Epoch: 20 March)

Event Time Altitude Azimuth Distance (km) Brightness Sun altitude
Rises 13:10:08 0° 235° (SW) 3,146 ? 24.1°
Reaches altitude 10° 13:12:41 10° 242° (WSW) 2,179 ? 24.0°
Maximum altitude 13:17:23 44° 314° (NW) 926 ? 23.7°
Drops below altitude 10° 13:21:46 10° 27° (NNE) 2,027 ? 23.4°
Sets 13:24:04 0° 35° (NE) 2,902 ? 23.3°
